[TLELIST] Archives

 

[list_settings.list_name] Current TLEs

April 11th 2010 PST

HST 1 20580U 90037B 10101.02283170 .00000605 00000-0 33485-4 0 5488 2 20580 028.4705 318.3135 0003684 204.4380 155.6158 15.00946947894657 ISS (ZARYA) 1 25544U 98067A 10101.52775573 .00026404 00000-0 18004-3 0 9525 2 25544 051.6455 212.7775 0004914 158.4500 312.7417 15.74649467652977 CXO 1 25867U 99040B 10100.33333333 .00000429 00000-0 10000-3 0 4495 2 25867 066.8119 056.8977 8059327 275.2174 002.3069 00.37808310 6135 ____________________________________________________________________ These 2-Line ...Continue Reading

[list_settings.list_name] Current TLEs

April 10th 2010 PST

HST 1 20580U 90037B 10099.02802005 .00000803 00000-0 48665-4 0 5473 2 20580 028.4699 331.3415 0003568 182.8534 177.2105 15.00944909894351 ISS (ZARYA) 1 25544U 98067A 10100.31828582 .00028227 00000-0 19264-3 0 9456 2 25544 051.6454 218.9929 0004699 153.4611 297.0850 15.74588741652785 CXO 1 25867U 99040B 10100.33333333 .00000429 00000-0 10000-3 0 4495 2 25867 066.8119 056.8977 8059327 275.2174 002.3069 00.37808310 6135 ____________________________________________________________________ These 2-Line ...Continue Reading

[list_settings.list_name] Current TLEs

April 9th 2010 PST

HST 1 20580U 90037B 10096.10228843 .00000773 00000-0 46440-4 0 5465 2 20580 028.4699 350.4344 0003568 151.7519 208.3319 15.00940823893917 ISS (ZARYA) 1 25544U 98067A 10099.49339444 .00026141 00000-0 17916-3 0 9383 2 25544 051.6454 223.2341 0004813 153.4163 298.1302 15.74537150652650 CXO 1 25867U 99040B 10100.29166667 .00000427 00000-0 10000-3 0 4481 2 25867 066.8111 056.9005 8059310 275.2161 356.6439 00.37808118 6130 ____________________________________________________________________ These 2-Line ...Continue Reading

[list_settings.list_name] Current TLEs

April 8th 2010 PST

HST 1 20580U 90037B 10096.10228843 .00000773 00000-0 46440-4 0 5465 2 20580 028.4699 350.4344 0003568 151.7519 208.3319 15.00940823893917 ISS (ZARYA) 1 25544U 98067A 10098.47614443 .00023270 00000-0 16029-3 0 9367 2 25544 051.6460 228.4548 0005684 150.1136 291.5580 15.74491608652498 CXO 1 25867U 99040B 10097.66666667 .00000269 00000-0 10000-3 0 4475 2 25867 066.7982 056.9905 8055951 275.2120 359.3226 00.37807176 6122 ____________________________________________________________________ These 2-Line ...Continue Reading

[list_settings.list_name] Current TLEs

April 7th 2010 PST

HST 1 20580U 90037B 10096.10228843 .00000773 00000-0 46440-4 0 5465 2 20580 028.4699 350.4344 0003568 151.7519 208.3319 15.00940823893917 ISS (ZARYA) 1 25544U 98067A 10097.51761082 .00023666 00000-0 16324-3 0 9281 2 25544 051.6462 233.3803 0005710 146.9412 258.0251 15.74448566652341 CXO 1 25867U 99040B 10097.66666667 .00000269 00000-0 10000-3 0 4475 2 25867 066.7982 056.9905 8055951 275.2120 359.3226 00.37807176 6122 ____________________________________________________________________ These 2-Line ...Continue Reading

[list_settings.list_name] Current TLEs

April 6th 2010 PST

HST 1 20580U 90037B 10096.10228843 .00000773 00000-0 46440-4 0 5465 2 20580 028.4699 350.4344 0003568 151.7519 208.3319 15.00940823893917 ISS (ZARYA) 1 25544U 98067A 10096.50881196 .00023866 00000-0 16492-3 0 9208 2 25544 051.6464 238.5633 0005748 141.7303 301.5735 15.74399302652180 CXO 1 25867U 99040B 10095.00000000 .00000088 00000-0 10000-3 0 4462 2 25867 066.7865 057.0937 8052414 275.2028 356.3210 00.37808472 6116 ____________________________________________________________________ These 2-Line ...Continue Reading

[list_settings.list_name] Current TLEs

April 5th 2010 PST

HST 1 20580U 90037B 10093.17654767 .00000590 00000-0 32369-4 0 5458 2 20580 028.4701 009.5346 0003545 126.0101 234.0844 15.00937367893471 ISS (ZARYA) 1 25544U 98067A 10095.36702409 .00027026 00000-0 18644-3 0 9113 2 25544 051.6461 244.4284 0005975 140.5495 307.0856 15.74357602652009 CXO 1 25867U 99040B 10095.00000000 .00000088 00000-0 10000-3 0 4462 2 25867 066.7865 057.0937 8052414 275.2028 356.3210 00.37808472 6116 ____________________________________________________________________ These 2-Line ...Continue Reading

[list_settings.list_name] Current TLEs

April 4th 2010 PST

HST 1 20580U 90037B 10093.17654767 .00000590 00000-0 32369-4 0 5458 2 20580 028.4701 009.5346 0003545 126.0101 234.0844 15.00937367893471 ISS (ZARYA) 1 25544U 98067A 10094.35061106 .00028596 00000-0 19741-3 0 9058 2 25544 051.6466 249.6520 0005922 133.3370 309.8197 15.74307952651840 CXO 1 25867U 99040B 10095.00000000 .00000088 00000-0 10000-3 0 4462 2 25867 066.7865 057.0937 8052414 275.2028 356.3210 00.37808472 6116 ____________________________________________________________________ These 2-Line ...Continue Reading

[list_settings.list_name] Current TLEs

April 4th 2010 PST

HST 1 20580U 90037B 10093.17654767 .00000590 00000-0 32369-4 0 5458 2 20580 028.4701 009.5346 0003545 126.0101 234.0844 15.00937367893471 ISS (ZARYA) 1 25544U 98067A 10093.52323568 .00026078 00000-0 18087-3 0 8985 2 25544 051.6450 253.8998 0006170 134.8463 296.0612 15.74253581651717 CXO 1 25867U 99040B 10092.33333333 .00000027 00000-0 10000-3 0 4455 2 25867 066.7757 057.2147 8046540 275.1899 353.3272 00.37809037 6101 ____________________________________________________________________ These 2-Line ...Continue Reading

[list_settings.list_name] Current TLEs

April 3rd 2010 PST

HST 1 20580U 90037B 10092.17913420 .00000606 00000-0 33603-4 0 5440 2 20580 028.4701 016.0473 0003533 114.9342 245.1599 15.00936639893320 ISS (ZARYA) 1 25544U 98067A 10092.31683626 .00021671 00000-0 15161-3 0 8901 2 25544 051.6448 260.0938 0006404 128.5231 300.8450 15.74175592651529 CXO 1 25867U 99040B 10092.33333333 .00000027 00000-0 10000-3 0 4455 2 25867 066.7757 057.2147 8046540 275.1899 353.3272 00.37809037 6101 ____________________________________________________________________ These 2-Line ...Continue Reading
  • This mailing list is a public mailing list - anyone may join or leave, at any time.
  • This mailing list is announce-only.

International Space Station (ISS) / Hubble Space Telescope (HST) / Chandra X-Ray Observatory Orbital Data via EMAIL

Privacy Policy:

Private list